Weather History for KDAW - September, 2013

Change the Weather History Date:

Saturday, September 21, 2013

  Actual Average (KCON) Record (KCON)
Temperature  
Mean Temperature 62 °F 58 °F  
Max Temperature 73 °F 71 °F 93 °F (1978)
Min Temperature 51 °F 45 °F 28 °F (1962)
Degree Days  
Heating Degree Days 4 8  
Month to date heating degree days 99  
Since 1 July heating degree days 147  
Cooling Degree Days 0 1  
Month to date cooling degree days 34  
Year to date cooling degree days 447  
Growing Degree Days 12 (Base 50)    
Moisture  
Dew Point 56 °F    
Average Humidity 86    
Maximum Humidity 100    
Minimum Humidity 63    
Precipitation  
Precipitation 0.00 in 0.11 in 2.79 in (1938)
Month to date precipitation 2.26  
Year to date precipitation 28.53  
Snow  
Snow 0.00 in 0.00 in 0.00 in (2002)
Month to date snowfall 0.0  
Since 1 July snowfall 0.0  
Since 1 September snowfall 0.0  
Snow Depth -    
Sea Level Pressure  
Sea Level Pressure 29.91 in    
Wind  
Wind Speed 3 mph (South)    
Max Wind Speed 10 mph    
Max Gust Speed 16 mph    
Visibility 6 miles    
Events Fog    
T = Trace of Precipitation, MM = Missing Value Source: NWS Daily Summary

Daily Weather History Graph

Daily Weather History Graph

Search for Another Location

Airport or City:

Trip Planner

Search our weather history database for the weather conditions in past years. The results will help you decide how hot, cold, wet, or windy it might be!

Date:

Astronomy

Sep. 21, 2013 Rise Set
Actual Time 6:30 AM EDT 6:42 PM EDT
Civil Twilight 6:01 AM EDT 7:10 PM EDT
Nautical Twilight 5:28 AM EDT 7:44 PM EDT
Astronomical Twilight 4:53 AM EDT 8:18 PM EDT
Moon 7:45 PM EDT (9/21) 8:50 AM EDT (9/21)
Length of Visible Light 13h 09m
Length of Day
12h 12m
Waning Gibbous, 94% of the Moon is Illuminated
Sep 21
Waning Gibbous
Sep 26
Last Quarter
Oct 4
New
Oct 11
First Quarter
Oct 18
Full

Hourly Weather History & Observations

Time (EDT) Temp. Dew Point Humidity Pressure Visibility Wind Dir Wind Speed Gust Speed Precip Events Conditions
12:37 AM 53.6 °F 51.8 °F 94% 30.02 in 1.8 mi NW 3.5 mph - N/A   Overcast
12:44 AM 53.6 °F 53.6 °F 100% 30.02 in 0.2 mi NW 3.5 mph - N/A Fog Fog
12:51 AM 54.0 °F 53.1 °F 97% 30.01 in 0.2 mi Calm Calm - N/A Fog Fog
1:51 AM 53.1 °F 52.0 °F 96% 30.00 in 0.2 mi Calm Calm - N/A Fog Fog
2:51 AM 52.0 °F 51.1 °F 97% 29.99 in 0.2 mi Calm Calm - N/A Fog Fog
3:51 AM 51.1 °F 50.0 °F 96% 30.00 in 0.2 mi Calm Calm - N/A Fog Fog
4:51 AM 51.1 °F 51.1 °F 100% 29.99 in 0.2 mi Calm Calm - N/A Fog Fog
5:51 AM 52.0 °F 51.1 °F 97% 29.97 in 0.2 mi Calm Calm - N/A Fog Fog
5:58 AM 51.8 °F 51.8 °F 100% 29.98 in 0.5 mi Calm Calm - N/A Fog Fog
6:11 AM 51.8 °F 51.8 °F 100% 29.99 in 0.2 mi Calm Calm - N/A Fog Fog
6:51 AM 53.1 °F 53.1 °F 100% 29.97 in 0.2 mi SSE 3.5 mph - N/A Fog Fog
7:19 AM 53.6 °F 53.6 °F 100% 29.98 in 0.5 mi Calm Calm - N/A Fog Fog
7:29 AM 55.4 °F 53.6 °F 94% 29.98 in 1.0 mi Variable 3.5 mph - N/A   Overcast
7:51 AM 55.0 °F 54.0 °F 96% 29.98 in 0.8 mi South 3.5 mph - N/A   Overcast
8:40 AM 55.4 °F 55.4 °F 100% 29.99 in 1.0 mi Variable 3.5 mph - N/A   Overcast
8:51 AM 55.9 °F 55.0 °F 97% 29.98 in 2.0 mi South 3.5 mph - N/A   Overcast
9:20 AM 55.4 °F 55.4 °F 100% 29.98 in 3.0 mi South 5.8 mph - N/A   Overcast
9:51 AM 57.0 °F 55.9 °F 96% 29.97 in 7.0 mi South 5.8 mph - N/A   Overcast
10:29 AM 60.8 °F 55.4 °F 82% 29.95 in 10.0 mi South 4.6 mph - N/A   Overcast
10:43 AM 60.8 °F 57.2 °F 88% 29.95 in 10.0 mi Variable 5.8 mph - N/A   Overcast
10:51 AM 62.1 °F 57.0 °F 84% 29.94 in 10.0 mi Variable 3.5 mph - N/A   Overcast
11:35 AM 64.4 °F 55.4 °F 73% 29.93 in 10.0 mi South 6.9 mph - N/A   Mostly Cloudy
11:44 AM 64.4 °F 55.4 °F 73% 29.92 in 10.0 mi South 6.9 mph - N/A   Scattered Clouds
11:51 AM 66.0 °F 55.9 °F 70% 29.91 in 10.0 mi South 9.2 mph - N/A   Scattered Clouds
12:51 PM 70.0 °F 57.0 °F 63% 29.88 in 10.0 mi Variable 6.9 mph - N/A   Scattered Clouds
1:05 PM 69.8 °F 57.2 °F 64% 29.89 in 10.0 mi South 10.4 mph 16.1 mph N/A   Mostly Cloudy
1:19 PM 69.8 °F 57.2 °F 64% 29.88 in 10.0 mi South 5.8 mph - N/A   Overcast
1:51 PM 72.0 °F 59.0 °F 64% 29.86 in 10.0 mi Calm Calm - N/A   Mostly Cloudy
2:51 PM 71.1 °F 60.1 °F 68% 29.84 in 10.0 mi South 8.1 mph - N/A   Overcast
3:51 PM 72.0 °F 61.0 °F 68% 29.81 in 10.0 mi SE 6.9 mph - N/A   Mostly Cloudy
4:51 PM 71.1 °F 61.0 °F 70% 29.80 in 10.0 mi South 6.9 mph - N/A   Overcast
5:51 PM 70.0 °F 61.0 °F 73% 29.79 in 10.0 mi SSE 3.5 mph - N/A   Scattered Clouds
6:51 PM 66.9 °F 59.0 °F 76% 29.79 in 10.0 mi SSE 5.8 mph - N/A   Scattered Clouds
7:51 PM 64.9 °F 57.9 °F 78% 29.78 in 10.0 mi SSE 5.8 mph - N/A   Clear
8:51 PM 64.0 °F 59.0 °F 84% 29.78 in 10.0 mi South 5.8 mph - N/A   Clear
9:17 PM 64.4 °F 60.8 °F 88% 29.78 in 10.0 mi SSE 6.9 mph - N/A   Mostly Cloudy
9:51 PM 64.9 °F 61.0 °F 87% 29.76 in 10.0 mi SSE 5.8 mph - N/A   Mostly Cloudy
10:07 PM 64.4 °F 60.8 °F 88% 29.76 in 10.0 mi SSE 5.8 mph - N/A   Scattered Clouds
10:51 PM 64.9 °F 62.1 °F 90% 29.74 in 10.0 mi SSE 6.9 mph - N/A   Partly Cloudy
11:51 PM 64.9 °F 62.1 °F 90% 29.73 in 10.0 mi SSE 5.8 mph - N/A   Overcast